User: anonymous   Login
Location: Peebles
(55.6412°N, 3.1714°W)
Time: 07:56:47
(UTC+01:00)
Language:

FENGYUN 1C DEB - Orbit

View from above orbital plane
View from above orbital plane
View from above satellite
View from above satellite

Ground track
Ground track

The orbit data is extracted from the following two-line orbital elements,

1 37928U 99025EPD 22268.22502989  .00001269  00000-0  48864-3 0  9992
2 37928  98.9981  83.4288 0080006 225.9597 133.4976 14.30439526643633
Epoch (UTC): 25 September 2022 05:24:02
Eccentricity: 0.0080006
inclination: 98.9981°
perigee height: 733 km
apogee height: 847 km
right ascension of ascending node: 83.4288°
argument of perigee: 225.9597°
revolutions per day: 14.30439526
mean anomaly at epoch: 133.4976°
orbit number at epoch: 64363

The dashed part of the orbit path shows where the satellite is in the earth's shadow,  

DLR